| time (UTC) | temp F | wind direction | speed MPH | gust MPH | rain 1hr in | rain 24hr in | rain mn in | humidity % | barometer mb |
| 20260504141008 | 75 | 346 | 5.0 | 14.0 | 0.01 | 0.05 | 0.03 | 58 | 1016.8 |
| 20260504140508 | 75 | 344 | 6.0 | 13.0 | 0.01 | 0.05 | 0.03 | 59 | 1016.9 |
| 20260504130508 | 71 | 342 | 3.0 | 8.0 | 0.00 | 0.04 | 0.02 | 70 | 1016.3 |
| 20260504130324 | 71 | 88 | 4.0 | 11.0 | 0.00 | 0.04 | 0.02 | 72 | 1016.4 |
| 20260504110509 | 64 | 16 | 2.0 | 5.0 | 0.00 | 0.04 | 0.02 | 84 | 1015.3 |
| 20260504110338 | 64 | 342 | 4.0 | 6.0 | 0.00 | 0.04 | 0.02 | 83 | 1015.3 |
| 20260504100509 | 64 | 30 | 4.0 | 8.0 | 0.00 | 0.04 | 0.02 | 83 | 1015.0 |
| 20260504081509 | 67 | 51 | 3.0 | 5.0 | 0.00 | 0.04 | 0.02 | 80 | 1014.8 |
| 20260504081009 | 67 | 330 | 3.0 | 5.0 | 0.00 | 0.04 | 0.02 | 80 | 1014.9 |
| 20260504080509 | 67 | 13 | 3.0 | 5.0 | 0.00 | 0.04 | 0.02 | 80 | 1015.0 |
| 20260504050509 | 69 | 9 | 3.0 | 5.0 | 0.00 | 0.03 | 0.01 | 76 | 1016.4 |
| 20260504050009 | 69 | 93 | 3.0 | 8.0 | 0.00 | 0.03 | 0.01 | 76 | 1016.5 |
| 20260504045838 | 69 | 21 | 2.0 | 6.0 | 0.00 | 0.03 | 0.01 | 76 | 1016.5 |
| 20260504045509 | 69 | 21 | 2.0 | 6.0 | 0.00 | 0.03 | 0.01 | 76 | 1016.5 |
| 20260504045009 | 69 | 309 | 2.0 | 4.0 | 0.00 | 0.03 | 0.01 | 76 | 1016.4 |
| 20260504044509 | 69 | 323 | 2.0 | 6.0 | 0.00 | 0.03 | 0.01 | 76 | 1016.6 |
| 20260504044009 | 69 | 55 | 2.0 | 6.0 | 0.00 | 0.03 | 0.01 | 76 | 1016.5 |
| 20260504043944 | 69 | 88 | 2.0 | 4.0 | 0.00 | 0.03 | 0.01 | 76 | 1016.7 |
| 20260504043509 | 69 | 88 | 2.0 | 4.0 | 0.00 | 0.03 | 0.01 | 76 | 1016.7 |
| 20260504043009 | 69 | 26 | 2.0 | 4.0 | 0.00 | 0.03 | 0.01 | 76 | 1016.6 |
| 20260504042509 | 69 | 70 | 2.0 | 5.0 | 0.00 | 0.03 | 0.01 | 76 | 1016.6 |
| 20260504042009 | 69 | 41 | 2.0 | 5.0 | 0.00 | 0.03 | 0.01 | 76 | 1016.7 |
| 20260504041509 | 69 | 51 | 2.0 | 4.0 | 0.00 | 0.03 | 0.01 | 76 | 1016.9 |
| 20260504041009 | 69 | 57 | 2.0 | 5.0 | 0.00 | 0.03 | 0.01 | 76 | 1016.9 |
| 20260504040948 | 69 | 76 | 2.0 | 3.0 | 0.00 | 0.03 | 0.01 | 76 | 1016.7 |
| 20260504040509 | 69 | 317 | 1.0 | 6.0 | 0.00 | 0.03 | 0.01 | 76 | 1016.7 |
| 20260504040009 | 69 | 76 | 2.0 | 3.0 | 0.00 | 0.03 | 0.01 | 76 | 1016.7 |
| 20260504035509 | 69 | 325 | 2.0 | 4.0 | 0.00 | 0.03 | 0.01 | 76 | 1016.6 |
| 20260504035009 | 69 | 88 | 2.0 | 6.0 | 0.00 | 0.03 | 0.01 | 75 | 1016.7 |
| 20260504034509 | 69 | 71 | 2.0 | 3.0 | 0.00 | 0.03 | 0.01 | 75 | 1016.7 |
| 20260504034009 | 69 | 325 | 2.0 | 7.0 | 0.00 | 0.04 | 0.01 | 75 | 1016.8 |
| 20260504033728 | 69 | 26 | 2.0 | 6.0 | 0.00 | 0.04 | 0.01 | 75 | 1016.7 |
| 20260504033509 | 69 | 83 | 2.0 | 6.0 | 0.00 | 0.04 | 0.01 | 75 | 1016.7 |
| 20260504033017 | 69 | 67 | 2.0 | 7.0 | 0.00 | 0.04 | 0.01 | 75 | 1016.7 |
| 20260504033009 | 69 | 26 | 2.0 | 6.0 | 0.00 | 0.04 | 0.01 | 75 | 1016.7 |
| 20260504032509 | 69 | 80 | 2.0 | 7.0 | 0.00 | 0.04 | 0.01 | 75 | 1016.7 |
| 20260504032009 | 69 | 67 | 2.0 | 7.0 | 0.00 | 0.04 | 0.01 | 75 | 1016.7 |
| 20260504031509 | 69 | 93 | 2.0 | 7.0 | 0.00 | 0.04 | 0.01 | 75 | 1016.7 |
| 20260504031140 | 69 | 88 | 2.0 | 7.0 | 0.00 | 0.04 | 0.01 | 75 | 1016.8 |
| 20260504031009 | 69 | 93 | 3.0 | 8.0 | 0.00 | 0.04 | 0.01 | 75 | 1016.7 |
| 20260504030509 | 69 | 88 | 2.0 | 7.0 | 0.00 | 0.04 | 0.01 | 75 | 1016.8 |
| 20260504030010 | 69 | 71 | 2.0 | 5.0 | 0.00 | 0.04 | 0.01 | 75 | 1017.0 |
| 20260504025509 | 69 | 79 | 2.0 | 8.0 | 0.00 | 0.04 | 0.01 | 75 | 1016.9 |
| 20260504025009 | 69 | 88 | 2.0 | 7.0 | 0.00 | 0.04 | 0.01 | 76 | 1016.7 |
| 20260504024509 | 69 | 80 | 2.0 | 7.0 | 0.00 | 0.04 | 0.01 | 75 | 1016.7 |
| 20260504024010 | 69 | 88 | 2.0 | 9.0 | 0.00 | 0.04 | 0.01 | 75 | 1016.6 |
| 20260504023509 | 69 | 282 | 3.0 | 6.0 | 0.00 | 0.04 | 0.01 | 75 | 1016.6 |
| 20260504023009 | 70 | 87 | 3.0 | 8.0 | 0.00 | 0.04 | 0.01 | 75 | 1016.6 |
| 20260504022509 | 69 | 51 | 3.0 | 9.0 | 0.00 | 0.04 | 0.01 | 75 | 1016.6 |
| 20260504022012 | 70 | 334 | 2.0 | 6.0 | 0.00 | 0.04 | 0.01 | 75 | 1016.6 |
| 20260504022010 | 69 | 325 | 3.0 | 9.0 | 0.00 | 0.04 | 0.01 | 75 | 1016.7 |
| 20260504021509 | 70 | 334 | 2.0 | 6.0 | 0.00 | 0.04 | 0.01 | 75 | 1016.6 |
| 20260504021010 | 70 | 79 | 2.0 | 6.0 | 0.00 | 0.04 | 0.01 | 75 | 1016.5 |
| 20260504020510 | 70 | 85 | 2.0 | 9.0 | 0.00 | 0.04 | 0.01 | 75 | 1016.4 |
| 20260504020009 | 70 | 88 | 2.0 | 6.0 | 0.00 | 0.04 | 0.01 | 75 | 1016.3 |
| 20260504015510 | 70 | 88 | 3.0 | 9.0 | 0.00 | 0.04 | 0.01 | 74 | 1016.3 |
| 20260504015010 | 70 | 92 | 2.0 | 8.0 | 0.00 | 0.04 | 0.01 | 74 | 1016.1 |
| 20260504014510 | 70 | 146 | 3.0 | 6.0 | 0.00 | 0.04 | 0.01 | 74 | 1016.3 |
| 20260504014010 | 70 | 90 | 3.0 | 9.0 | 0.00 | 0.04 | 0.01 | 74 | 1016.5 |
| 20260504013510 | 70 | 26 | 3.0 | 10.0 | 0.00 | 0.04 | 0.01 | 74 | 1016.4 |
| 20260504013010 | 70 | 85 | 3.0 | 12.0 | 0.00 | 0.04 | 0.01 | 74 | 1016.4 |
| 20260504012510 | 70 | 90 | 3.0 | 8.0 | 0.00 | 0.04 | 0.01 | 74 | 1016.3 |
| 20260504012010 | 70 | 51 | 3.0 | 7.0 | 0.01 | 0.04 | 0.01 | 73 | 1016.1 |
| 20260504011510 | 71 | 9 | 3.0 | 11.0 | 0.01 | 0.04 | 0.01 | 73 | 1016.1 |
| 20260504011010 | 71 | 9 | 3.0 | 6.0 | 0.01 | 0.04 | 0.01 | 73 | 1016.2 |
| 20260504010510 | 71 | 78 | 3.0 | 8.0 | 0.01 | 0.04 | 0.01 | 73 | 1016.1 |
| 20260504010038 | 71 | 63 | 2.0 | 6.0 | 0.01 | 0.04 | 0.01 | 73 | 1015.8 |
| 20260504010010 | 71 | 76 | 2.0 | 7.0 | 0.01 | 0.04 | 0.01 | 73 | 1016.0 |
| 20260504005510 | 71 | 63 | 2.0 | 6.0 | 0.01 | 0.04 | 0.01 | 73 | 1015.8 |
| 20260504005010 | 71 | 93 | 2.0 | 8.0 | 0.01 | 0.04 | 0.01 | 73 | 1015.7 |
| 20260504004510 | 71 | 90 | 2.0 | 6.0 | 0.01 | 0.04 | 0.01 | 72 | 1015.6 |
| 20260504004010 | 71 | 90 | 3.0 | 8.0 | 0.01 | 0.04 | 0.01 | 72 | 1015.4 |
| 20260504003510 | 71 | 93 | 3.0 | 8.0 | 0.01 | 0.04 | 0.01 | 72 | 1015.6 |
| 20260504003010 | 72 | 93 | 2.0 | 9.0 | 0.01 | 0.04 | 0.01 | 71 | 1015.5 |
| 20260504002510 | 72 | 51 | 3.0 | 7.0 | 0.01 | 0.04 | 0.01 | 71 | 1015.6 |
| 20260504002012 | 72 | 90 | 3.0 | 10.0 | 0.00 | 0.03 | 0.00 | 71 | 1015.3 |
| 20260504002010 | 72 | 93 | 3.0 | 11.0 | 0.00 | 0.03 | 0.00 | 71 | 1015.4 |
| 20260504001510 | 72 | 90 | 3.0 | 10.0 | 0.00 | 0.03 | 0.00 | 71 | 1015.3 |
| 20260504001010 | 72 | 78 | 4.0 | 10.0 | 0.00 | 0.03 | 0.03 | 71 | 1015.4 |
| 20260504000510 | 72 | 76 | 3.0 | 9.0 | 0.00 | 0.03 | 0.03 | 70 | 1015.3 |
| 20260504000010 | 72 | 92 | 3.0 | 7.0 | 0.00 | 0.03 | 0.03 | 70 | 1015.3 |
| 20260503235510 | 72 | 93 | 4.0 | 9.0 | 0.00 | 0.03 | 0.03 | 70 | 1015.2 |
| 20260503235018 | 73 | 108 | 4.0 | 12.0 | 0.00 | 0.03 | 0.03 | 69 | 1015.1 |
| 20260503235010 | 73 | 93 | 4.0 | 8.0 | 0.00 | 0.03 | 0.03 | 70 | 1015.1 |
| 20260503234510 | 73 | 108 | 4.0 | 12.0 | 0.00 | 0.03 | 0.03 | 69 | 1015.1 |
| 20260503234010 | 73 | 65 | 4.0 | 12.0 | 0.00 | 0.03 | 0.03 | 69 | 1015.1 |
| 20260503233510 | 73 | 29 | 4.0 | 12.0 | 0.00 | 0.03 | 0.03 | 69 | 1015.2 |
| 20260503233010 | 73 | 346 | 4.0 | 12.0 | 0.00 | 0.03 | 0.03 | 69 | 1015.2 |
| 20260503232510 | 73 | 84 | 4.0 | 9.0 | 0.00 | 0.03 | 0.03 | 69 | 1015.1 |
| 20260503232010 | 73 | 76 | 5.0 | 12.0 | 0.00 | 0.03 | 0.03 | 68 | 1015.1 |
| 20260503231510 | 74 | 45 | 6.0 | 12.0 | 0.00 | 0.03 | 0.03 | 69 | 1015.1 |
| 20260503231010 | 74 | 71 | 5.0 | 12.0 | 0.00 | 0.03 | 0.03 | 69 | 1015.0 |
| 20260503230510 | 74 | 90 | 4.0 | 11.0 | 0.00 | 0.03 | 0.03 | 69 | 1015.0 |
| 20260503230010 | 74 | 80 | 3.0 | 10.0 | 0.00 | 0.03 | 0.03 | 68 | 1014.9 |
| 20260503225510 | 74 | 84 | 4.0 | 7.0 | 0.00 | 0.03 | 0.03 | 68 | 1014.8 |
| 20260503225010 | 74 | 23 | 5.0 | 9.0 | 0.00 | 0.03 | 0.03 | 68 | 1014.9 |
| 20260503224510 | 74 | 137 | 5.0 | 13.0 | 0.00 | 0.03 | 0.03 | 68 | 1014.9 |
| 20260503224010 | 74 | 67 | 5.0 | 12.0 | 0.00 | 0.04 | 0.03 | 67 | 1015.0 |
| 20260503223510 | 75 | 80 | 4.0 | 10.0 | 0.00 | 0.04 | 0.03 | 68 | 1015.1 |
| 20260503223140 | 75 | 93 | 4.0 | 11.0 | 0.00 | 0.04 | 0.03 | 66 | 1015.1 |
| 20260503223010 | 75 | 212 | 5.0 | 11.0 | 0.00 | 0.04 | 0.03 | 67 | 1015.1 |
| 20260503222510 | 75 | 93 | 4.0 | 11.0 | 0.00 | 0.04 | 0.03 | 66 | 1015.1 |
| 20260503222010 | 75 | 78 | 3.0 | 7.0 | 0.00 | 0.04 | 0.03 | 66 | 1014.9 |
| 20260503221510 | 75 | 93 | 3.0 | 9.0 | 0.00 | 0.04 | 0.03 | 65 | 1014.9 |
| 20260503221010 | 75 | 86 | 3.0 | 7.0 | 0.00 | 0.04 | 0.03 | 66 | 1014.9 |
| 20260503220510 | 75 | 76 | 4.0 | 8.0 | 0.00 | 0.04 | 0.03 | 66 | 1014.9 |
| 20260503220440 | 75 | 88 | 4.0 | 8.0 | 0.00 | 0.04 | 0.03 | 65 | 1014.8 |
| 20260503220010 | 75 | 88 | 4.0 | 8.0 | 0.00 | 0.04 | 0.03 | 65 | 1014.8 |
| 20260503215510 | 75 | 28 | 4.0 | 9.0 | 0.00 | 0.04 | 0.03 | 66 | 1014.9 |
| 20260503215010 | 76 | 79 | 3.0 | 12.0 | 0.00 | 0.04 | 0.03 | 66 | 1014.9 |
| 20260503214510 | 76 | 93 | 3.0 | 10.0 | 0.00 | 0.04 | 0.03 | 66 | 1014.8 |
| 20260503214010 | 76 | 59 | 4.0 | 9.0 | 0.00 | 0.04 | 0.03 | 65 | 1014.6 |
| 20260503213510 | 76 | 72 | 4.0 | 9.0 | 0.00 | 0.04 | 0.03 | 64 | 1014.6 |
| 20260503213236 | 76 | 80 | 4.0 | 9.0 | 0.00 | 0.04 | 0.03 | 64 | 1014.6 |
| 20260503213010 | 76 | 80 | 4.0 | 9.0 | 0.00 | 0.04 | 0.03 | 64 | 1014.6 |
| 20260503212510 | 76 | 67 | 4.0 | 9.0 | 0.00 | 0.04 | 0.03 | 64 | 1014.7 |
| 20260503212010 | 76 | 90 | 3.0 | 8.0 | 0.00 | 0.04 | 0.03 | 64 | 1014.7 |
| 20260503211510 | 76 | 59 | 3.0 | 8.0 | 0.00 | 0.04 | 0.03 | 63 | 1014.6 |
| 20260503211138 | 76 | 93 | 4.0 | 9.0 | 0.00 | 0.04 | 0.03 | 63 | 1014.7 |
| 20260503211010 | 76 | 93 | 4.0 | 9.0 | 0.00 | 0.04 | 0.03 | 63 | 1014.7 |
| 20260503210510 | 76 | 34 | 5.0 | 10.0 | 0.00 | 0.04 | 0.03 | 64 | 1014.7 |
| 20260503210104 | 76 | 93 | 4.0 | 11.0 | 0.00 | 0.04 | 0.03 | 64 | 1014.7 |
| 20260503210010 | 76 | 93 | 4.0 | 11.0 | 0.00 | 0.04 | 0.03 | 64 | 1014.7 |
| 20260503205510 | 76 | 88 | 4.0 | 8.0 | 0.00 | 0.04 | 0.03 | 65 | 1014.8 |
| 20260503205010 | 76 | 93 | 4.0 | 9.0 | 0.00 | 0.04 | 0.03 | 63 | 1014.7 |
| 20260503204510 | 77 | 90 | 4.0 | 11.0 | 0.01 | 0.04 | 0.03 | 62 | 1014.8 |
| 20260503204010 | 77 | 44 | 4.0 | 9.0 | 0.01 | 0.05 | 0.03 | 62 | 1014.9 |
| 20260503203510 | 77 | 84 | 4.0 | 9.0 | 0.01 | 0.05 | 0.03 | 62 | 1015.0 |
| 20260503203010 | 76 | 337 | 4.0 | 10.0 | 0.01 | 0.05 | 0.03 | 63 | 1014.9 |
| 20260503202510 | 76 | 77 | 5.0 | 10.0 | 0.01 | 0.05 | 0.03 | 63 | 1015.0 |
| 20260503202010 | 77 | 92 | 4.0 | 11.0 | 0.01 | 0.05 | 0.03 | 63 | 1015.1 |
| 20260503201510 | 76 | 51 | 4.0 | 10.0 | 0.01 | 0.05 | 0.03 | 65 | 1015.2 |
| 20260503201010 | 76 | 92 | 4.0 | 9.0 | 0.01 | 0.05 | 0.03 | 63 | 1015.2 |
| 20260503200510 | 77 | 88 | 5.0 | 10.0 | 0.01 | 0.05 | 0.03 | 62 | 1015.3 |
| 20260503200010 | 77 | 74 | 4.0 | 10.0 | 0.01 | 0.05 | 0.03 | 61 | 1015.4 |
| 20260503195510 | 77 | 102 | 3.0 | 9.0 | 0.01 | 0.05 | 0.03 | 62 | 1015.4 |
| 20260503195013 | 76 | 87 | 5.0 | 11.0 | 0.00 | 0.04 | 0.02 | 64 | 1015.6 |
| 20260503195010 | 77 | 44 | 4.0 | 5.0 | 0.01 | 0.05 | 0.03 | 63 | 1015.4 |
| 20260503194510 | 76 | 87 | 5.0 | 11.0 | 0.00 | 0.04 | 0.02 | 64 | 1015.6 |
| 20260503194010 | 76 | 92 | 4.0 | 11.0 | 0.00 | 0.04 | 0.02 | 63 | 1015.7 |
| 20260503193510 | 76 | 44 | 3.0 | 8.0 | 0.00 | 0.04 | 0.02 | 65 | 1015.7 |
| 20260503193010 | 76 | 57 | 4.0 | 9.0 | 0.00 | 0.04 | 0.02 | 65 | 1015.8 |
| 20260503192510 | 76 | 84 | 4.0 | 12.0 | 0.00 | 0.04 | 0.02 | 63 | 1016.0 |
| 20260503192010 | 76 | 338 | 3.0 | 9.0 | 0.00 | 0.04 | 0.02 | 64 | 1016.0 |
| 20260503191811 | 76 | 93 | 2.0 | 9.0 | 0.00 | 0.04 | 0.02 | 65 | 1016.0 |
| 20260503191510 | 76 | 93 | 2.0 | 9.0 | 0.00 | 0.04 | 0.02 | 65 | 1016.0 |
| 20260503191010 | 76 | 32 | 3.0 | 6.0 | 0.00 | 0.04 | 0.02 | 66 | 1016.1 |
| 20260503190510 | 76 | 90 | 3.0 | 11.0 | 0.00 | 0.04 | 0.02 | 66 | 1016.2 |
| 20260503190010 | 76 | 93 | 3.0 | 8.0 | 0.00 | 0.04 | 0.02 | 66 | 1016.1 |
| 20260503185510 | 76 | 86 | 4.0 | 10.0 | 0.00 | 0.04 | 0.02 | 67 | 1016.3 |
| 20260503185010 | 76 | 15 | 4.0 | 10.0 | 0.00 | 0.04 | 0.02 | 67 | 1016.3 |
| 20260503184510 | 76 | 82 | 4.0 | 10.0 | 0.00 | 0.04 | 0.02 | 67 | 1016.3 |
| 20260503184010 | 76 | 19 | 4.0 | 10.0 | 0.00 | 0.04 | 0.02 | 67 | 1016.5 |
| 20260503183956 | 76 | 90 | 5.0 | 9.0 | 0.00 | 0.04 | 0.02 | 66 | 1016.7 |
| 20260503183510 | 76 | 90 | 5.0 | 9.0 | 0.00 | 0.04 | 0.02 | 66 | 1016.7 |
| 20260503183010 | 76 | 90 | 4.0 | 10.0 | 0.00 | 0.04 | 0.02 | 67 | 1016.7 |
| 20260503182510 | 76 | 74 | 4.0 | 8.0 | 0.00 | 0.04 | 0.02 | 67 | 1016.9 |
| 20260503182142 | 75 | 93 | 4.0 | 13.0 | 0.00 | 0.04 | 0.02 | 67 | 1016.9 |
| 20260503182010 | 75 | 93 | 4.0 | 13.0 | 0.00 | 0.04 | 0.02 | 67 | 1016.9 |
| 20260503181510 | 75 | 333 | 4.0 | 9.0 | 0.00 | 0.04 | 0.02 | 69 | 1016.9 |
| 20260503181010 | 74 | 195 | 5.0 | 12.0 | 0.00 | 0.04 | 0.02 | 67 | 1017.0 |
| 20260503180510 | 74 | 93 | 5.0 | 13.0 | 0.00 | 0.04 | 0.02 | 68 | 1017.1 |
| 20260503180010 | 74 | 92 | 5.0 | 11.0 | 0.00 | 0.04 | 0.02 | 69 | 1017.1 |
| 20260503175510 | 75 | 84 | 5.0 | 12.0 | 0.00 | 0.04 | 0.02 | 69 | 1017.3 |
| 20260503175010 | 74 | 90 | 4.0 | 8.0 | 0.00 | 0.04 | 0.02 | 69 | 1017.2 |
| 20260503174510 | 74 | 93 | 5.0 | 9.0 | 0.00 | 0.04 | 0.02 | 68 | 1017.3 |
| 20260503174010 | 74 | 48 | 4.0 | 13.0 | 0.00 | 0.04 | 0.02 | 69 | 1017.3 |
| 20260503173510 | 74 | 81 | 4.0 | 10.0 | 0.00 | 0.04 | 0.02 | 70 | 1017.2 |
| 20260503173010 | 74 | 36 | 4.0 | 10.0 | 0.00 | 0.04 | 0.02 | 69 | 1017.3 |
| 20260503172510 | 74 | 90 | 4.0 | 12.0 | 0.00 | 0.04 | 0.02 | 71 | 1017.2 |
| 20260503172011 | 73 | 80 | 5.0 | 12.0 | 0.00 | 0.04 | 0.02 | 71 | 1017.2 |
| 20260503171511 | 73 | 34 | 6.0 | 12.0 | 0.00 | 0.04 | 0.02 | 70 | 1017.4 |
| 20260503171011 | 73 | 90 | 6.0 | 13.0 | 0.00 | 0.04 | 0.02 | 69 | 1017.6 |
| 20260503170511 | 74 | 88 | 5.0 | 14.0 | 0.00 | 0.04 | 0.02 | 70 | 1017.5 |
| 20260503151011 | 68 | 61 | 6.0 | 14.0 | 0.01 | 0.04 | 0.02 | 82 | 1018.1 |
| 20260503150511 | 67 | 20 | 6.0 | 15.0 | 0.01 | 0.04 | 0.02 | 82 | 1018.1 |